{"data":{"norad_id":54822,"intl_designator":"2022-177C","name":"STARLINK-5101","alt_names":[],"object_type":"PAYLOAD","status":"ACTIVE","operator":null,"country":"US","launch_date":"2022-12-28","launch_site_code":"AFETR","launch_vehicle":null,"mission":null,"orbit_class":"UNKNOWN","rcs_meters":null,"size_class":null,"mass_kg":null,"dimensions":null,"purposes":["comms"],"wikipedia_slug":null,"has_3d_model":false,"image_url":null,"decayed_at":null,"tle_current":{"epoch":"2026-09-20T22:39:41.668992Z","epoch_age_seconds":54320,"freshness":"FRESH","line1":"1 54822U 22177C   26263.94423228 -.00000220  00000+0  15301-5 0  9992","line2":"2 54822  43.0006 113.4857 0001068 238.0316 122.0432 15.27575857206782","mean_motion":15.27575857,"eccentricity":0.0001068,"inclination_deg":43.0006,"raan_deg":113.4857,"arg_perigee_deg":238.0316,"mean_anomaly_deg":122.0432,"bstar":1.5301e-6,"rev_number":20678,"period_min":94.267004378297,"perigee_km":482.32872570015,"apogee_km":483.79427770011,"semimajor_km":6861.1985017001,"source":"CELESTRAK","updated_at":"2026-09-21T09:00:33.132560Z"}}}